SCP
0 0 0 0 0 1 1 0 1 0 0 0 0 0 0 0 0 0 0 0 0 0 0 0 0 0 0 0 0 0 0 0 0 0 0 0 0 0
0 0 0 0 0 0 1 1 0 0 0 0 0 0 0 0 0 0 0 0 0 0 0 0 0 0 0 0 0 0 0 0 0 0 0 0 0 0
0 0 0 0 0 0 1 1 1 0 0 0 0 0 0 0 0 0 0 0 0 0 0 0 0 0 0 0 0 0 0 0 0 0 0 0 0 0
0 0 0 0 0 0 1 1 1 1 0 0 0 0 0 0 0 0 0 0 0 0 0 0 0 0 0 0 0 0 0 0 0 0 0 0 0 0
0 0 0 0 0 0 0 1 1 0 0 0 0 0 0 0 0 0 0 0 0 0 0 0 0 0 0 0 0 0 0 0 0 0 0 0 0 0
0 0 0 0 0 0 0 0 1 0 0 0 0 0 0 0 0 0 0 0 0 0 0 0 0 0 0 0 0 0 0 0 0 0 0 0 0 0
0 0 0 0 0 0 0 0 0 0 0 0 0 0 0 0 0 0 0 0 0 0 0 0 0 0 0 0 0 0 0 0 0 0 0 0 0 -0
0 0 0 0 0 0 0 0 0 0 0 1 0 0 0 0 0 0 0 0 0 0 0 0 0 0 0 0 0 0 0 0 0 0 0 0 0 -0
0 0 0 0 0 0 0 0 0 0 0 0 0 0 0 0 0 0 0 0 0 0 0 0 0 0 0 0 0 0 0 0 0 0 0 0 0 -0
0 0 0 0 0 0 0 0 0 0 0 0 0 0 1 0 0 0 0 0 0 0 0 0 0 0 0 0 0 0 0 0 0 0 0 0 0 0
0 0 0 0 0 0 0 0 0 0 0 0 0 0 0 0 0 0 0 0 0 0 0 0 0 0 0 0 0 0 0 0 0 0 0 0 0 -0
0 0 0 0 0 0 0 0 0 0 0 0 0 0 0 0 0 0 0 0 0 0 0 0 0 0 0 0 0 0 0 0 0 0 0 0 -0 -0
0 0 0 0 0 0 0 0 0 0 0 0 0 0 0 0 0 0 0 0 0 0 0 0 0 0 0 0 0 0 0 0 0 0 0 0 0 0
0 0 0 0 0 0 0 0 0 0 0 0 0 0 0 0 0 0 0 0 0 0 0 0 0 0 0 0 0 0 0 0 0 0 0 0 0 -0
0 0 0 0 0 0 0 0 0 0 0 0 0 0 0 0 0 0 0 0 0 0 0 0 0 0 0 0 0 0 0 0 0 0 0 0 -0 -0
0 0 0 0 0 0 0 0 0 0 0 0 0 0 0 0 0 0 0 0 0 0 0 0 0 0 0 0 0 0 0 0 0 0 0 0 -0 -0
0 0 0 0 0 0 0 0 0 0 0 0 0 0 0 0 0 0 0 0 0 0 0 0 0 0 0 0 0 0 0 0 -0 -0 0 -0 0 -0
0 0 0 0 0 0 0 0 0 0 0 0 0 0 0 0 0 0 0 0 0 0 0 0 0 0 0 0 0 0 0 0 -0 -0 0 -0 -0 0
0 0 0 0 0 0 0 0 0 0 0 0 0 0 0 0 0 0 0 0 0 0 0 0 0 0 0 0 0 0 0 0 -0 -0 0 -0 0 0
0 0 0 0 0 0 0 0 0 0 0 0 0 0 0 0 0 0 0 0 0 0 0 0 0 0 0 0 0 0 0 0 -0 -0 -0 -0 -0 0
0 0 0 0 0 0 0 0 0 0 0 0 0 0 0 0 0 0 0 0 0 0 0 0 0 0 0 0 0 0 0 0 0 0 -0 -0 -0 0
0 0 0 0 0 0 0 0 0 0 0 0 0 0 0 0 0 0 0 0 0 0 0 0 0 0 0 0 0 0 0 0 0 -0 -0 -0 -0 -0
0 0 0 0 0 0 0 0 0 0 0 0 0 0 0 0 0 0 0 0 0 0 0 0 0 0 0 0 0 0 0 0 0 0 0 -0 0 -0
Wind_Speed_500mb
34 40 42 42 41 46 42 42 40 35 30 38 37 40 43 40 36 34 29 24 19 19 16 21 19 20 18 21 29 27 29 31 39 44 45 45 42 36
28 32 33 32 34 44 48 40 41 41 39 32 38 42 40 42 40 38 32 26 20 18 16 16 17 17 18 23 28 29 28 33 40 44 44 42 39 41
27 29 31 29 31 27 36 38 40 44 41 35 47 46 45 40 40 38 34 28 21 15 13 11 15 14 14 23 23 31 30 33 39 43 44 43 45 46
28 28 24 25 28 35 32 38 37 44 46 42 56 59 48 41 41 38 34 32 24 16 11 11 13 14 17 24 26 29 30 35 38 43 46 46 50 50
34 31 22 23 22 27 39 31 29 35 38 40 56 48 43 48 45 46 38 36 28 19 13 13 16 16 17 23 23 25 29 33 36 40 46 51 52 50
36 34 27 23 22 23 25 36 39 35 31 34 35 41 42 47 49 47 41 39 31 23 16 15 18 18 18 22 23 23 27 29 35 41 46 51 47 33
42 37 31 28 25 26 29 27 40 43 32 34 39 46 49 48 54 49 46 39 34 29 21 17 14 14 15 19 20 19 24 26 32 38 44 41 39 29
55 46 36 34 33 31 29 26 27 40 43 34 35 39 47 46 48 50 48 45 35 29 28 24 13 12 16 17 17 15 18 22 28 34 41 33 36 27
64 62 49 42 39 34 33 32 30 31 35 46 40 37 40 46 45 46 51 44 31 25 17 21 12 4 12 15 15 13 12 18 23 29 37 27 28 20
70 67 62 54 48 45 40 34 36 35 30 35 50 52 47 45 40 40 42 43 38 26 23 15 11 4 8 11 11 8 9 13 18 23 30 19 22 16
65 67 72 66 56 56 50 44 38 33 36 36 38 43 52 51 47 41 45 49 41 32 31 24 13 5 3 9 10 6 7 9 14 19 23 11 17 13
47 48 54 64 68 66 59 49 38 39 35 36 34 42 45 51 54 47 53 52 43 32 31 28 17 9 4 6 9 5 5 4 9 14 18 9 12 15
29 33 31 43 47 56 56 57 55 44 46 44 42 38 46 43 54 56 51 56 51 32 24 28 17 13 12 5 6 7 7 3 5 9 14 10 9 20
29 29 34 37 40 43 40 39 46 51 52 55 49 45 39 40 47 56 61 64 54 45 40 28 18 17 15 11 9 11 12 10 6 6 8 9 11 23
29 35 40 49 40 36 42 37 36 42 42 51 55 44 45 42 33 62 68 65 58 57 48 26 19 23 20 17 12 11 17 16 12 11 9 13 15 30
25 37 45 45 52 53 55 40 31 32 38 43 48 44 40 41 47 43 70 76 73 67 53 36 27 33 27 21 16 13 21 13 19 17 13 18 20 37
40 43 38 39 40 41 37 31 33 33 35 38 48 55 41 45 37 49 55 67 74 72 71 52 40 39 33 27 22 19 27 20 23 22 19 23 25 40
45 46 44 42 41 37 32 32 30 36 38 38 42 56 44 42 44 48 56 71 85 79 73 65 57 52 47 36 29 25 30 27 27 29 27 29 32 40
51 51 52 46 42 38 35 35 37 35 33 39 40 54 45 41 42 48 50 64 73 86 81 82 69 67 63 42 40 33 33 33 32 36 33 24 36 40
53 54 46 39 36 37 33 35 38 39 41 44 37 53 49 43 43 48 55 67 70 69 72 66 59 73 69 60 46 44 40 33 31 35 38 34 41 41
45 47 44 38 33 32 33 34 35 38 41 44 42 47 50 46 44 48 50 53 53 52 51 67 71 72 66 56 43 49 49 44 36 30 39 38 41 44
35 44 42 36 31 35 32 34 35 39 43 43 47 54 51 51 46 50 52 52 53 49 53 53 70 79 73 63 51 48 60 52 43 33 41 43 37 41
33 33 36 37 35 32 33 35 34 39 42 39 46 48 60 51 45 46 50 52 48 57 47 37 63 75 72 64 56 55 59 58 50 46 44 39 39 27
Wind_Direction_500mb
270 270 269 263 256 249 259 259 258 261 265 262 255 242 243 249 251 255 263 274 274 271 264 256 277 290 298 306 309 316 321 342 347 344 345 344 343 346
285 278 273 275 264 253 250 255 253 253 263 259 258 251 247 246 250 252 255 265 269 279 295 273 270 292 299 308 315 323 329 345 346 345 346 343 341 345
312 299 292 279 263 249 246 249 248 248 255 251 256 257 252 248 248 248 247 255 259 275 286 281 268 283 290 305 314 319 337 344 345 346 349 346 343 339
312 312 314 310 270 253 247 246 245 245 253 251 257 251 250 245 243 247 242 245 248 254 274 288 276 278 285 299 311 323 339 340 349 351 352 348 343 342
307 307 322 311 287 264 249 246 248 254 255 251 260 250 252 246 237 239 238 237 243 244 264 289 288 276 282 293 306 322 338 340 353 353 355 352 350 350
292 296 303 302 284 277 256 245 245 244 253 261 242 247 247 248 240 241 240 233 237 239 249 272 287 288 285 285 297 311 331 347 351 356 358 359 3 18
282 282 288 288 284 282 273 257 243 246 241 242 242 242 244 241 238 237 240 231 232 233 243 259 288 308 324 285 289 305 327 349 354 359 3 13 16 22
279 277 277 278 279 276 277 275 261 239 242 235 238 242 247 243 242 242 241 230 228 235 237 258 260 309 329 310 283 298 321 350 360 2 10 22 25 41
273 277 277 271 271 274 273 270 268 269 240 236 238 237 245 248 249 247 241 233 218 227 217 235 248 272 325 313 301 302 320 357 1 7 15 29 35 58
269 270 272 271 267 268 267 271 265 257 260 253 238 240 242 244 254 259 244 229 220 220 227 220 241 214 329 305 301 308 330 7 4 11 19 37 39 80
271 267 267 268 267 260 264 264 267 268 261 255 256 242 242 240 240 244 221 218 212 213 223 219 217 218 310 297 297 298 320 9 10 14 22 54 36 99
272 278 271 266 263 264 257 259 261 261 264 256 250 248 238 235 231 232 225 220 209 205 215 209 206 212 175 265 289 256 283 5 16 22 26 92 42 126
273 274 274 271 266 264 260 257 257 258 258 255 247 245 243 240 231 226 227 217 203 206 222 186 191 195 205 227 240 230 220 242 38 40 36 89 72 138
276 269 269 269 270 270 271 264 257 257 255 251 248 247 242 237 231 228 223 212 225 228 204 189 196 207 211 196 193 214 203 201 145 102 54 97 110 142
271 269 264 270 264 259 263 256 254 252 249 245 244 241 239 243 240 236 221 212 210 202 204 198 192 200 207 204 198 199 186 192 162 141 107 122 138 149
287 267 257 260 273 267 265 262 256 252 246 245 239 228 239 236 238 237 233 219 196 197 197 187 192 203 200 199 198 184 179 176 172 151 132 141 137 148
297 283 277 270 266 265 264 261 252 246 243 242 238 225 228 230 237 229 245 226 206 215 199 194 194 199 194 194 195 185 179 179 170 152 134 149 139 148
288 287 280 271 264 264 259 252 250 245 237 236 236 223 221 227 223 233 231 230 204 201 211 206 218 198 197 197 202 191 176 177 175 156 145 159 148 153
270 276 279 277 271 264 257 246 241 232 235 225 233 216 219 221 217 221 224 225 222 223 219 224 206 204 191 184 194 190 186 178 179 165 155 161 164 157
270 271 272 270 260 257 255 244 238 237 229 226 225 214 215 216 217 210 209 213 215 215 209 210 213 204 201 195 183 189 181 178 182 181 167 165 167 164
266 265 264 271 260 253 249 243 240 235 223 221 217 214 214 213 215 215 211 208 211 214 218 219 216 206 195 198 184 179 179 174 178 189 175 166 173 174
271 264 264 268 250 250 248 242 239 235 223 223 219 209 210 211 210 213 211 208 211 215 223 218 206 198 195 193 185 188 179 173 172 177 184 174 169 181
272 263 259 257 249 245 239 234 235 234 224 230 216 219 205 207 206 209 203 205 208 207 202 202 202 197 197 195 192 188 182 177 172 177 180 182 175 181
Wind_Speed_850mb
34 40 42 42 41 46 42 42 40 35 30 38 37 40 43 40 36 34 29 24 19 19 16 21 19 20 18 21 29 27 29 31 39 44 45 45 42 36
28 32 33 32 34 44 48 40 41 41 39 32 38 42 40 42 40 38 32 26 20 18 16 16 17 17 18 23 28 29 28 33 40 44 44 42 39 41
27 29 31 29 31 27 36 38 40 44 41 35 47 46 45 40 40 38 34 28 21 15 13 11 15 14 14 23 23 31 30 33 39 43 44 43 45 46
28 28 24 25 28 35 32 38 37 44 46 42 56 59 48 41 41 38 34 32 24 16 11 11 13 14 17 24 26 29 30 35 38 43 46 46 50 50
34 31 22 23 22 27 39 31 29 35 38 40 56 48 43 48 45 46 38 36 28 19 13 13 16 16 17 23 23 25 29 33 36 40 46 51 52 50
36 34 27 23 22 23 25 36 39 35 31 34 35 41 42 47 49 47 41 39 31 23 16 15 18 18 18 22 23 23 27 29 35 41 46 51 47 33
42 37 31 28 25 26 29 27 40 43 32 34 39 46 49 48 54 49 46 39 34 29 21 17 14 14 15 19 20 19 24 26 32 38 44 41 39 29
55 46 36 34 33 31 29 26 27 40 43 34 35 39 47 46 48 50 48 45 35 29 28 24 13 12 16 17 17 15 18 22 28 34 41 33 36 27
64 62 49 42 39 34 33 32 30 31 35 46 40 37 40 46 45 46 51 44 31 25 17 21 12 4 12 15 15 13 12 18 23 29 37 27 28 20
70 67 62 54 48 45 40 34 36 35 30 35 50 52 47 45 40 40 42 43 38 26 23 15 11 4 8 11 11 8 9 13 18 23 30 19 22 16
65 67 72 66 56 56 50 44 38 33 36 36 38 43 52 51 47 41 45 49 41 32 31 24 13 5 3 9 10 6 7 9 14 19 23 11 17 13
47 48 54 64 68 66 59 49 38 39 35 36 34 42 45 51 54 47 53 52 43 32 31 28 17 9 4 6 9 5 5 4 9 14 18 9 12 15
29 33 31 43 47 56 56 57 55 44 46 44 42 38 46 43 54 56 51 56 51 32 24 28 17 13 12 5 6 7 7 3 5 9 14 10 9 20
29 29 34 37 40 43 40 39 46 51 52 55 49 45 39 40 47 56 61 64 54 45 40 28 18 17 15 11 9 11 12 10 6 6 8 9 11 23
29 35 40 49 40 36 42 37 36 42 42 51 55 44 45 42 33 62 68 65 58 57 48 26 19 23 20 17 12 11 17 16 12 11 9 13 15 30
25 37 45 45 52 53 55 40 31 32 38 43 48 44 40 41 47 43 70 76 73 67 53 36 27 33 27 21 16 13 21 13 19 17 13 18 20 37
40 43 38 39 40 41 37 31 33 33 35 38 48 55 41 45 37 49 55 67 74 72 71 52 40 39 33 27 22 19 27 20 23 22 19 23 25 40
45 46 44 42 41 37 32 32 30 36 38 38 42 56 44 42 44 48 56 71 85 79 73 65 57 52 47 36 29 25 30 27 27 29 27 29 32 40
51 51 52 46 42 38 35 35 37 35 33 39 40 54 45 41 42 48 50 64 73 86 81 82 69 67 63 42 40 33 33 33 32 36 33 24 36 40
53 54 46 39 36 37 33 35 38 39 41 44 37 53 49 43 43 48 55 67 70 69 72 66 59 73 69 60 46 44 40 33 31 35 38 34 41 41
45 47 44 38 33 32 33 34 35 38 41 44 42 47 50 46 44 48 50 53 53 52 51 67 71 72 66 56 43 49 49 44 36 30 39 38 41 44
35 44 42 36 31 35 32 34 35 39 43 43 47 54 51 51 46 50 52 52 53 49 53 53 70 79 73 63 51 48 60 52 43 33 41 43 37 41
33 33 36 37 35 32 33 35 34 39 42 39 46 48 60 51 45 46 50 52 48 57 47 37 63 75 72 64 56 55 59 58 50 46 44 39 39 27
Wind_Direction_850mb
270 270 269 263 256 249 259 259 258 261 265 262 255 242 243 249 251 255 263 274 274 271 264 256 277 290 298 306 309 316 321 342 347 344 345 344 343 346
285 278 273 275 264 253 250 255 253 253 263 259 258 251 247 246 250 252 255 265 269 279 295 273 270 292 299 308 315 323 329 345 346 345 346 343 341 345
312 299 292 279 263 249 246 249 248 248 255 251 256 257 252 248 248 248 247 255 259 275 286 281 268 283 290 305 314 319 337 344 345 346 349 346 343 339
312 312 314 310 270 253 247 246 245 245 253 251 257 251 250 245 243 247 242 245 248 254 274 288 276 278 285 299 311 323 339 340 349 351 352 348 343 342
307 307 322 311 287 264 249 246 248 254 255 251 260 250 252 246 237 239 238 237 243 244 264 289 288 276 282 293 306 322 338 340 353 353 355 352 350 350
292 296 303 302 284 277 256 245 245 244 253 261 242 247 247 248 240 241 240 233 237 239 249 272 287 288 285 285 297 311 331 347 351 356 358 359 3 18
282 282 288 288 284 282 273 257 243 246 241 242 242 242 244 241 238 237 240 231 232 233 243 259 288 308 324 285 289 305 327 349 354 359 3 13 16 22
279 277 277 278 279 276 277 275 261 239 242 235 238 242 247 243 242 242 241 230 228 235 237 258 260 309 329 310 283 298 321 350 360 2 10 22 25 41
273 277 277 271 271 274 273 270 268 269 240 236 238 237 245 248 249 247 241 233 218 227 217 235 248 272 325 313 301 302 320 357 1 7 15 29 35 58
269 270 272 271 267 268 267 271 265 257 260 253 238 240 242 244 254 259 244 229 220 220 227 220 241 214 329 305 301 308 330 7 4 11 19 37 39 80
271 267 267 268 267 260 264 264 267 268 261 255 256 242 242 240 240 244 221 218 212 213 223 219 217 218 310 297 297 298 320 9 10 14 22 54 36 99
272 278 271 266 263 264 257 259 261 261 264 256 250 248 238 235 231 232 225 220 209 205 215 209 206 212 175 265 289 256 283 5 16 22 26 92 42 126
273 274 274 271 266 264 260 257 257 258 258 255 247 245 243 240 231 226 227 217 203 206 222 186 191 195 205 227 240 230 220 242 38 40 36 89 72 138
276 269 269 269 270 270 271 264 257 257 255 251 248 247 242 237 231 228 223 212 225 228 204 189 196 207 211 196 193 214 203 201 145 102 54 97 110 142
271 269 264 270 264 259 263 256 254 252 249 245 244 241 239 243 240 236 221 212 210 202 204 198 192 200 207 204 198 199 186 192 162 141 107 122 138 149
287 267 257 260 273 267 265 262 256 252 246 245 239 228 239 236 238 237 233 219 196 197 197 187 192 203 200 199 198 184 179 176 172 151 132 141 137 148
297 283 277 270 266 265 264 261 252 246 243 242 238 225 228 230 237 229 245 226 206 215 199 194 194 199 194 194 195 185 179 179 170 152 134 149 139 148
288 287 280 271 264 264 259 252 250 245 237 236 236 223 221 227 223 233 231 230 204 201 211 206 218 198 197 197 202 191 176 177 175 156 145 159 148 153
270 276 279 277 271 264 257 246 241 232 235 225 233 216 219 221 217 221 224 225 222 223 219 224 206 204 191 184 194 190 186 178 179 165 155 161 164 157
270 271 272 270 260 257 255 244 238 237 229 226 225 214 215 216 217 210 209 213 215 215 209 210 213 204 201 195 183 189 181 178 182 181 167 165 167 164
266 265 264 271 260 253 249 243 240 235 223 221 217 214 214 213 215 215 211 208 211 214 218 219 216 206 195 198 184 179 179 174 178 189 175 166 173 174
271 264 264 268 250 250 248 242 239 235 223 223 219 209 210 211 210 213 211 208 211 215 223 218 206 198 195 193 185 188 179 173 172 177 184 174 169 181
272 263 259 257 249 245 239 234 235 234 224 230 216 219 205 207 206 209 203 205 208 207 202 202 202 197 197 195 192 188 182 177 172 177 180 182 175 181